Donnes mto: mercredi, 01/03/2017
Date Horaire Temp. I. Temp. E. Hum. I. Hum. E. P.atmo. Pluie Vent Direction Direction Ensoleilleme Ev.Tr. UV Solaire P. de rose Temp au vent Rafales Rception
01/03/2017 00:00 22,2 C 6,7 C 46 % 71 % 1015,4 hPa 0,0 mm 4,6 km/h (1 Bft) O-SO 253 0 min 0,000 mm 0,0 UV-I 0 W/m 1,8 C 6,7 C 11,3 km/h (2 Bft) 97 %
01/03/2017 00:05 22,1 C 6,7 C 46 % 72 % 1015,4 hPa 0,0 mm 4,9 km/h (1 Bft) O 264 0 min 0,000 mm 0,0 UV-I 0 W/m 2,0 C 6,7 C 17,7 km/h (3 Bft) 97 %
01/03/2017 00:10 22,1 C 6,7 C 46 % 71 % 1015,4 hPa 0,0 mm 4,1 km/h (1 Bft) O 275 0 min 0,000 mm 0,0 UV-I 0 W/m 1,8 C 6,7 C 9,7 km/h (2 Bft) 97 %
01/03/2017 00:15 22,1 C 6,7 C 46 % 71 % 1015,4 hPa 0,0 mm 6,7 km/h (2 Bft) O-NO 286 0 min 0,000 mm 0,0 UV-I 0 W/m 1,8 C 6,5 C 12,9 km/h (3 Bft) 98 %
01/03/2017 00:20 22,1 C 6,7 C 46 % 71 % 1015,5 hPa 0,0 mm 7,3 km/h (2 Bft) O-NO 298 0 min 0,000 mm 0,0 UV-I 0 W/m 1,8 C 6,0 C 19,3 km/h (3 Bft) 97 %
01/03/2017 00:25 22,1 C 6,6 C 46 % 71 % 1015,5 hPa 0,0 mm 6,0 km/h (2 Bft) O 259 0 min 0,000 mm 0,0 UV-I 0 W/m 1,7 C 6,6 C 16,1 km/h (3 Bft) 94 %
01/03/2017 00:30 22,0 C 6,6 C 46 % 71 % 1015,6 hPa 0,0 mm 5,6 km/h (1 Bft) O-NO 283 0 min 0,000 mm 0,0 UV-I 0 W/m 1,7 C 6,6 C 16,1 km/h (3 Bft) 97 %
01/03/2017 00:35 22,0 C 6,6 C 46 % 70 % 1015,5 hPa 0,0 mm 5,5 km/h (1 Bft) O 269 0 min 0,000 mm 0,0 UV-I 0 W/m 1,5 C 6,6 C 17,7 km/h (3 Bft) 97 %
01/03/2017 00:40 21,9 C 6,7 C 46 % 70 % 1015,6 hPa 0,0 mm 8,6 km/h (2 Bft) O-NO 286 0 min 0,000 mm 0,0 UV-I 0 W/m 1,6 C 4,9 C 16,1 km/h (3 Bft) 98 %
01/03/2017 00:45 21,9 C 6,7 C 46 % 70 % 1015,6 hPa 0,0 mm 6,3 km/h (2 Bft) O-NO 290 0 min 0,000 mm 0,0 UV-I 0 W/m 1,6 C 6,7 C 16,1 km/h (3 Bft) 97 %
01/03/2017 00:50 21,9 C 6,7 C 46 % 70 % 1015,6 hPa 0,0 mm 5,1 km/h (1 Bft) NO 309 0 min 0,000 mm 0,0 UV-I 0 W/m 1,6 C 6,7 C 11,3 km/h (2 Bft) 97 %
01/03/2017 00:55 21,9 C 6,7 C 46 % 71 % 1015,5 hPa 0,0 mm 5,0 km/h (1 Bft) O-NO 288 0 min 0,000 mm 0,0 UV-I 0 W/m 1,8 C 6,7 C 14,5 km/h (3 Bft) 95 %
01/03/2017 01:00 21,8 C 6,6 C 46 % 71 % 1015,5 hPa 0,0 mm 6,7 km/h (2 Bft) O-NO 289 0 min 0,025 mm 0,0 UV-I 0 W/m 1,7 C 6,4 C 16,1 km/h (3 Bft) 97 %
01/03/2017 01:05 21,8 C 6,6 C 46 % 71 % 1015,5 hPa 0,0 mm 6,3 km/h (2 Bft) NO 326 0 min 0,000 mm 0,0 UV-I 0 W/m 1,7 C 6,6 C 17,7 km/h (3 Bft) 97 %
01/03/2017 01:10 21,8 C 6,4 C 46 % 71 % 1015,5 hPa 0,0 mm 4,3 km/h (1 Bft) O-NO 293 0 min 0,000 mm 0,0 UV-I 0 W/m 1,5 C 6,4 C 16,1 km/h (3 Bft) 97 %
01/03/2017 01:15 21,7 C 6,4 C 46 % 72 % 1015,6 hPa 0,0 mm 1,1 km/h (1 Bft) O-NO 287 0 min 0,000 mm 0,0 UV-I 0 W/m 1,7 C 6,4 C 4,8 km/h (1 Bft) 94 %
01/03/2017 01:20 21,7 C 6,3 C 46 % 72 % 1015,5 hPa 0,0 mm 0,6 km/h (0 Bft) S 185 0 min 0,000 mm 0,0 UV-I 0 W/m 1,6 C 6,3 C 6,4 km/h (2 Bft) 95 %
01/03/2017 01:25 21,7 C 6,1 C 46 % 72 % 1015,5 hPa 0,0 mm 0,0 km/h (0 Bft) S 185 0 min 0,000 mm 0,0 UV-I 0 W/m 1,4 C 6,1 C 0,0 km/h (0 Bft) 96 %
01/03/2017 01:30 21,7 C 5,9 C 46 % 72 % 1015,6 hPa 0,0 mm 0,0 km/h (0 Bft) S 185 0 min 0,000 mm 0,0 UV-I 0 W/m 1,2 C 5,9 C 0,0 km/h (0 Bft) 94 %
01/03/2017 01:35 21,6 C 5,7 C 46 % 72 % 1015,6 hPa 0,0 mm 0,0 km/h (0 Bft) S 186 0 min 0,000 mm 0,0 UV-I 0 W/m 1,1 C 5,7 C 0,0 km/h (0 Bft) 96 %
01/03/2017 01:40 21,6 C 5,6 C 46 % 73 % 1015,6 hPa 0,0 mm 0,0 km/h (0 Bft) S 189 0 min 0,000 mm 0,0 UV-I 0 W/m 1,2 C 5,6 C 0,0 km/h (0 Bft) 96 %
01/03/2017 01:45 21,6 C 5,3 C 46 % 74 % 1015,5 hPa 0,0 mm 0,0 km/h (0 Bft) O-SO 243 0 min 0,000 mm 0,0 UV-I 0 W/m 1,0 C 5,3 C 0,0 km/h (0 Bft) 97 %
01/03/2017 01:50 21,6 C 5,2 C 46 % 74 % 1015,5 hPa 0,0 mm 0,0 km/h (0 Bft) O-SO 243 0 min 0,000 mm 0,0 UV-I 0 W/m 1,0 C 5,2 C 0,0 km/h (0 Bft) 97 %
01/03/2017 01:55 21,5 C 5,0 C 46 % 75 % 1015,5 hPa 0,0 mm 0,0 km/h (0 Bft) O-SO 243 0 min 0,000 mm 0,0 UV-I 0 W/m 0,9 C 5,0 C 0,0 km/h (0 Bft) 97 %
01/03/2017 02:00 21,4 C 4,8 C 45 % 76 % 1015,5 hPa 0,0 mm 0,0 km/h (0 Bft) O-SO 243 0 min 0,026 mm 0,0 UV-I 0 W/m 0,9 C 4,8 C 0,0 km/h (0 Bft) 99 %
01/03/2017 02:05 21,4 C 4,7 C 45 % 76 % 1015,6 hPa 0,0 mm 0,0 km/h (0 Bft) O-SO 243 0 min 0,000 mm 0,0 UV-I 0 W/m 0,8 C 4,7 C 0,0 km/h (0 Bft) 96 %
01/03/2017 02:10 21,4 C 4,6 C 45 % 76 % 1015,5 hPa 0,0 mm 0,0 km/h (0 Bft) O-SO 243 0 min 0,000 mm 0,0 UV-I 0 W/m 0,7 C 4,6 C 0,0 km/h (0 Bft) 97 %
01/03/2017 02:15 21,3 C 4,5 C 45 % 77 % 1015,5 hPa 0,0 mm 0,0 km/h (0 Bft) O-SO 243 0 min 0,000 mm 0,0 UV-I 0 W/m 0,8 C 4,5 C 0,0 km/h (0 Bft) 98 %
01/03/2017 02:20 21,3 C 4,4 C 45 % 77 % 1015,5 hPa 0,0 mm 0,0 km/h (0 Bft) O-SO 243 0 min 0,000 mm 0,0 UV-I 0 W/m 0,7 C 4,4 C 0,0 km/h (0 Bft) 100 %
01/03/2017 02:25 21,3 C 4,3 C 45 % 77 % 1015,5 hPa 0,0 mm 0,0 km/h (0 Bft) O-SO 243 0 min 0,000 mm 0,0 UV-I 0 W/m 0,6 C 4,3 C 0,0 km/h (0 Bft) 99 %
01/03/2017 02:30 21,2 C 4,2 C 45 % 77 % 1015,4 hPa 0,0 mm 0,0 km/h (0 Bft) O-SO 243 0 min 0,000 mm 0,0 UV-I 0 W/m 0,5 C 4,2 C 0,0 km/h (0 Bft) 99 %
01/03/2017 02:35 21,2 C 4,1 C 45 % 77 % 1015,4 hPa 0,0 mm 0,0 km/h (0 Bft) O-SO 243 0 min 0,000 mm 0,0 UV-I 0 W/m 0,4 C 4,1 C 0,0 km/h (0 Bft) 99 %
01/03/2017 02:40 21,2 C 4,0 C 45 % 78 % 1015,4 hPa 0,0 mm 0,0 km/h (0 Bft) O-SO 243 0 min 0,000 mm 0,0 UV-I 0 W/m 0,5 C 4,0 C 0,0 km/h (0 Bft) 97 %
01/03/2017 02:45 21,1 C 3,9 C 45 % 78 % 1015,4 hPa 0,0 mm 0,0 km/h (0 Bft) O-SO 243 0 min 0,000 mm 0,0 UV-I 0 W/m 0,4 C 3,9 C 0,0 km/h (0 Bft) 97 %
01/03/2017 02:50 21,1 C 3,8 C 45 % 78 % 1015,5 hPa 0,0 mm 0,0 km/h (0 Bft) O-SO 243 0 min 0,000 mm 0,0 UV-I 0 W/m 0,3 C 3,8 C 0,0 km/h (0 Bft) 99 %
01/03/2017 02:55 21,1 C 3,7 C 45 % 78 % 1015,4 hPa 0,0 mm 0,0 km/h (0 Bft) O-SO 243 0 min 0,000 mm 0,0 UV-I 0 W/m 0,2 C 3,7 C 0,0 km/h (0 Bft) 98 %
01/03/2017 03:00 21,0 C 3,5 C 45 % 78 % 1015,4 hPa 0,0 mm 0,0 km/h (0 Bft) O-SO 243 0 min 0,000 mm 0,0 UV-I 0 W/m 0,0 C 3,5 C 0,0 km/h (0 Bft) 98 %
01/03/2017 03:05 21,0 C 3,3 C 45 % 79 % 1015,4 hPa 0,0 mm 0,0 km/h (0 Bft) O-SO 243 0 min 0,000 mm 0,0 UV-I 0 W/m 0,0 C 3,3 C 0,0 km/h (0 Bft) 97 %
01/03/2017 03:10 20,9 C 3,2 C 45 % 79 % 1015,5 hPa 0,0 mm 0,0 km/h (0 Bft) O-SO 242 0 min 0,000 mm 0,0 UV-I 0 W/m -0,1 C 3,2 C 0,0 km/h (0 Bft) 97 %
01/03/2017 03:15 20,9 C 3,1 C 45 % 79 % 1015,5 hPa 0,0 mm 0,0 km/h (0 Bft) O-SO 242 0 min 0,000 mm 0,0 UV-I 0 W/m -0,2 C 3,1 C 0,0 km/h (0 Bft) 100 %
01/03/2017 03:20 20,9 C 2,9 C 45 % 79 % 1015,6 hPa 0,0 mm 0,0 km/h (0 Bft) O-SO 242 0 min 0,000 mm 0,0 UV-I 0 W/m -0,4 C 2,9 C 0,0 km/h (0 Bft) 100 %
01/03/2017 03:25 20,8 C 2,7 C 45 % 80 % 1015,6 hPa 0,0 mm 0,0 km/h (0 Bft) O-SO 242 0 min 0,000 mm 0,0 UV-I 0 W/m -0,4 C 2,7 C 0,0 km/h (0 Bft) 98 %
01/03/2017 03:30 20,8 C 2,6 C 45 % 80 % 1015,6 hPa 0,0 mm 0,0 km/h (0 Bft) O-SO 242 0 min 0,000 mm 0,0 UV-I 0 W/m -0,5 C 2,6 C 0,0 km/h (0 Bft) 97 %
01/03/2017 03:35 20,8 C 2,5 C 45 % 81 % 1015,7 hPa 0,0 mm 0,0 km/h (0 Bft) O-SO 242 0 min 0,000 mm 0,0 UV-I 0 W/m -0,4 C 2,5 C 0,0 km/h (0 Bft) 98 %
01/03/2017 03:40 20,7 C 2,4 C 45 % 81 % 1015,7 hPa 0,0 mm 0,0 km/h (0 Bft) O-SO 242 0 min 0,000 mm 0,0 UV-I 0 W/m -0,5 C 2,4 C 0,0 km/h (0 Bft) 97 %
01/03/2017 03:45 20,7 C 2,3 C 45 % 82 % 1015,8 hPa 0,0 mm 0,0 km/h (0 Bft) O-SO 242 0 min 0,000 mm 0,0 UV-I 0 W/m -0,4 C 2,3 C 0,0 km/h (0 Bft) 97 %
01/03/2017 03:50 20,7 C 2,1 C 45 % 82 % 1015,8 hPa 0,0 mm 0,0 km/h (0 Bft) O-SO 242 0 min 0,000 mm 0,0 UV-I 0 W/m -0,6 C 2,1 C 0,0 km/h (0 Bft) 100 %
01/03/2017 03:55 20,6 C 2,0 C 45 % 82 % 1015,8 hPa 0,0 mm 0,0 km/h (0 Bft) O-SO 242 0 min 0,000 mm 0,0 UV-I 0 W/m -0,7 C 2,0 C 0,0 km/h (0 Bft) 99 %
01/03/2017 04:00 20,6 C 1,9 C 45 % 83 % 1015,7 hPa 0,0 mm 0,0 km/h (0 Bft) O-SO 242 0 min 0,000 mm 0,0 UV-I 0 W/m -0,7 C 1,9 C 0,0 km/h (0 Bft) 100 %
01/03/2017 04:05 20,6 C 1,8 C 45 % 83 % 1015,7 hPa 0,0 mm 0,0 km/h (0 Bft) O-SO 242 0 min 0,000 mm 0,0 UV-I 0 W/m -0,8 C 1,8 C 0,0 km/h (0 Bft) 100 %
01/03/2017 04:10 20,5 C 1,7 C 45 % 83 % 1015,7 hPa 0,0 mm 0,0 km/h (0 Bft) O-SO 242 0 min 0,000 mm 0,0 UV-I 0 W/m -0,9 C 1,7 C 0,0 km/h (0 Bft) 99 %
01/03/2017 04:15 20,5 C 1,6 C 45 % 83 % 1015,8 hPa 0,0 mm 0,0 km/h (0 Bft) O-SO 242 0 min 0,000 mm 0,0 UV-I 0 W/m -1,0 C 1,6 C 0,0 km/h (0 Bft) 97 %
01/03/2017 04:20 20,4 C 1,5 C 45 % 83 % 1015,7 hPa 0,0 mm 0,0 km/h (0 Bft) O-SO 242 0 min 0,000 mm 0,0 UV-I 0 W/m -1,1 C 1,5 C 0,0 km/h (0 Bft) 98 %
01/03/2017 04:25 20,4 C 1,3 C 45 % 84 % 1015,7 hPa 0,0 mm 0,0 km/h (0 Bft) O-SO 242 0 min 0,000 mm 0,0 UV-I 0 W/m -1,1 C 1,3 C 0,0 km/h (0 Bft) 99 %
01/03/2017 04:30 20,4 C 1,2 C 45 % 85 % 1015,7 hPa 0,0 mm 0,0 km/h (0 Bft) O-SO 242 0 min 0,000 mm 0,0 UV-I 0 W/m -1,0 C 1,2 C 0,0 km/h (0 Bft) 99 %
01/03/2017 04:35 20,3 C 1,1 C 45 % 85 % 1015,8 hPa 0,0 mm 0,0 km/h (0 Bft) O-SO 242 0 min 0,000 mm 0,0 UV-I 0 W/m -1,1 C 1,1 C 0,0 km/h (0 Bft) 100 %
01/03/2017 04:40 20,3 C 1,0 C 45 % 85 % 1015,9 hPa 0,0 mm 0,0 km/h (0 Bft) O-SO 242 0 min 0,000 mm 0,0 UV-I 0 W/m -1,2 C 1,0 C 0,0 km/h (0 Bft) 98 %
01/03/2017 04:45 20,3 C 0,9 C 45 % 85 % 1015,9 hPa 0,0 mm 0,0 km/h (0 Bft) O-SO 242 0 min 0,000 mm 0,0 UV-I 0 W/m -1,3 C 0,9 C 0,0 km/h (0 Bft) 100 %
01/03/2017 04:50 20,2 C 0,9 C 45 % 85 % 1015,9 hPa 0,0 mm 0,0 km/h (0 Bft) O-SO 242 0 min 0,000 mm 0,0 UV-I 0 W/m -1,3 C 0,9 C 0,0 km/h (0 Bft) 99 %
01/03/2017 04:55 20,2 C 0,8 C 45 % 85 % 1015,9 hPa 0,0 mm 0,0 km/h (0 Bft) O-SO 242 0 min 0,000 mm 0,0 UV-I 0 W/m -1,4 C 0,8 C 0,0 km/h (0 Bft) 99 %
01/03/2017 05:00 20,2 C 0,8 C 45 % 85 % 1015,9 hPa 0,0 mm 0,0 km/h (0 Bft) O-SO 242 0 min 0,000 mm 0,0 UV-I 0 W/m -1,4 C 0,8 C 0,0 km/h (0 Bft) 99 %
01/03/2017 05:05 20,1 C 0,7 C 45 % 85 % 1016,0 hPa 0,0 mm 0,0 km/h (0 Bft) O-SO 242 0 min 0,000 mm 0,0 UV-I 0 W/m -1,5 C 0,7 C 0,0 km/h (0 Bft) 100 %
01/03/2017 05:10 20,1 C 0,7 C 45 % 85 % 1015,9 hPa 0,0 mm 0,0 km/h (0 Bft) O-SO 242 0 min 0,000 mm 0,0 UV-I 0 W/m -1,5 C 0,7 C 0,0 km/h (0 Bft) 99 %
01/03/2017 05:15 20,1 C 0,7 C 45 % 86 % 1015,9 hPa 0,0 mm 0,0 km/h (0 Bft) O-SO 242 0 min 0,000 mm 0,0 UV-I 0 W/m -1,4 C 0,7 C 0,0 km/h (0 Bft) 97 %
01/03/2017 05:20 20,0 C 0,6 C 45 % 86 % 1015,8 hPa 0,0 mm 0,0 km/h (0 Bft) O-SO 242 0 min 0,000 mm 0,0 UV-I 0 W/m -1,5 C 0,6 C 0,0 km/h (0 Bft) 100 %
01/03/2017 05:25 19,9 C 0,6 C 45 % 86 % 1015,8 hPa 0,0 mm 0,0 km/h (0 Bft) O-SO 242 0 min 0,000 mm 0,0 UV-I 0 W/m -1,5 C 0,6 C 0,0 km/h (0 Bft) 99 %
01/03/2017 05:30 19,9 C 0,5 C 45 % 86 % 1015,8 hPa 0,0 mm 0,0 km/h (0 Bft) O-SO 242 0 min 0,000 mm 0,0 UV-I 0 W/m -1,6 C 0,5 C 0,0 km/h (0 Bft) 100 %
01/03/2017 05:35 19,9 C 0,4 C 45 % 86 % 1015,9 hPa 0,0 mm 0,0 km/h (0 Bft) O-SO 242 0 min 0,000 mm 0,0 UV-I 0 W/m -1,7 C 0,4 C 0,0 km/h (0 Bft) 96 %
01/03/2017 05:40 19,8 C 0,4 C 45 % 86 % 1015,9 hPa 0,0 mm 0,0 km/h (0 Bft) O-SO 242 0 min 0,000 mm 0,0 UV-I 0 W/m -1,7 C 0,4 C 0,0 km/h (0 Bft) 96 %
01/03/2017 05:45 19,8 C 0,4 C 45 % 86 % 1016,1 hPa 0,0 mm 0,0 km/h (0 Bft) O-SO 242 0 min 0,000 mm 0,0 UV-I 0 W/m -1,7 C 0,4 C 0,0 km/h (0 Bft) 99 %
01/03/2017 05:50 19,8 C 0,3 C 45 % 86 % 1016,0 hPa 0,0 mm 0,0 km/h (0 Bft) O-SO 242 0 min 0,000 mm 0,0 UV-I 0 W/m -1,8 C 0,3 C 0,0 km/h (0 Bft) 98 %
01/03/2017 05:55 19,7 C 0,3 C 45 % 87 % 1016,1 hPa 0,0 mm 0,0 km/h (0 Bft) O-SO 242 0 min 0,000 mm 0,0 UV-I 0 W/m -1,6 C 0,3 C 0,0 km/h (0 Bft) 98 %
01/03/2017 06:00 19,7 C 0,2 C 45 % 86 % 1016,1 hPa 0,0 mm 0,0 km/h (0 Bft) O-SO 242 0 min 0,000 mm 0,0 UV-I 0 W/m -1,9 C 0,2 C 0,0 km/h (0 Bft) 100 %
01/03/2017 06:05 19,7 C 0,2 C 45 % 86 % 1016,1 hPa 0,0 mm 0,0 km/h (0 Bft) O-SO 242 0 min 0,000 mm 0,0 UV-I 0 W/m -1,9 C 0,2 C 0,0 km/h (0 Bft) 97 %
01/03/2017 06:10 19,6 C 0,2 C 45 % 87 % 1016,1 hPa 0,0 mm 0,0 km/h (0 Bft) O-SO 242 0 min 0,000 mm 0,0 UV-I 0 W/m -1,7 C 0,2 C 0,0 km/h (0 Bft) 100 %
01/03/2017 06:15 19,6 C 0,1 C 46 % 87 % 1016,1 hPa 0,0 mm 0,0 km/h (0 Bft) O-SO 242 0 min 0,000 mm 0,0 UV-I 0 W/m -1,8 C 0,1 C 0,0 km/h (0 Bft) 99 %
01/03/2017 06:20 19,8 C 0,1 C 46 % 87 % 1016,1 hPa 0,0 mm 0,0 km/h (0 Bft) O-SO 242 0 min 0,000 mm 0,0 UV-I 0 W/m -1,8 C 0,1 C 0,0 km/h (0 Bft) 99 %
01/03/2017 06:25 20,1 C 0,1 C 46 % 87 % 1016,2 hPa 0,0 mm 0,0 km/h (0 Bft) O-SO 242 0 min 0,000 mm 0,0 UV-I 0 W/m -1,8 C 0,1 C 0,0 km/h (0 Bft) 98 %
01/03/2017 06:30 20,3 C 0,1 C 46 % 87 % 1016,2 hPa 0,0 mm 0,0 km/h (0 Bft) O-SO 242 0 min 0,000 mm 0,0 UV-I 0 W/m -1,8 C 0,1 C 0,0 km/h (0 Bft) 98 %
01/03/2017 06:35 20,7 C 0,1 C 45 % 87 % 1016,2 hPa 0,0 mm 0,0 km/h (0 Bft) O-SO 242 0 min 0,000 mm 0,0 UV-I 0 W/m -1,8 C 0,1 C 0,0 km/h (0 Bft) 98 %
01/03/2017 06:40 20,9 C 0,1 C 45 % 87 % 1016,1 hPa 0,0 mm 0,0 km/h (0 Bft) O-SO 242 0 min 0,000 mm 0,0 UV-I 0 W/m -1,8 C 0,1 C 0,0 km/h (0 Bft) 99 %
01/03/2017 06:45 21,2 C 0,1 C 45 % 87 % 1016,2 hPa 0,0 mm 0,0 km/h (0 Bft) O-SO 242 0 min 0,000 mm 0,0 UV-I 0 W/m -1,8 C 0,1 C 0,0 km/h (0 Bft) 98 %
01/03/2017 06:50 21,4 C 0,1 C 45 % 87 % 1016,1 hPa 0,0 mm 0,0 km/h (0 Bft) O-SO 242 0 min 0,000 mm 0,0 UV-I 0 W/m -1,8 C 0,1 C 0,0 km/h (0 Bft) 98 %
01/03/2017 06:55 21,6 C 0,1 C 44 % 87 % 1016,1 hPa 0,0 mm 0,0 km/h (0 Bft) O-SO 242 0 min 0,000 mm 0,0 UV-I 0 W/m -1,8 C 0,1 C 0,0 km/h (0 Bft) 97 %
01/03/2017 07:00 21,7 C -0,1 C 44 % 86 % 1016,1 hPa 0,0 mm 0,0 km/h (0 Bft) O-SO 242 0 min 0,000 mm 0,0 UV-I 0 W/m -2,2 C -0,1 C 0,0 km/h (0 Bft) 100 %
01/03/2017 07:05 21,8 C -0,1 C 44 % 86 % 1016,1 hPa 0,0 mm 0,0 km/h (0 Bft) O-SO 242 0 min 0,000 mm 0,0 UV-I 0 W/m -2,2 C -0,1 C 0,0 km/h (0 Bft) 99 %
01/03/2017 07:10 21,8 C -0,2 C 44 % 87 % 1016,1 hPa 0,0 mm 0,0 km/h (0 Bft) O-SO 242 0 min 0,000 mm 0,0 UV-I 0 W/m -2,1 C -0,2 C 0,0 km/h (0 Bft) 98 %
01/03/2017 07:15 21,8 C -0,2 C 43 % 87 % 1016,1 hPa 0,0 mm 0,0 km/h (0 Bft) O-SO 242 0 min 0,000 mm 0,0 UV-I 0 W/m -2,1 C -0,2 C 0,0 km/h (0 Bft) 100 %
01/03/2017 07:20 21,8 C -0,3 C 43 % 87 % 1016,2 hPa 0,0 mm 0,0 km/h (0 Bft) O-SO 242 0 min 0,000 mm 0,0 UV-I 0 W/m -2,2 C -0,3 C 0,0 km/h (0 Bft) 99 %
01/03/2017 07:25 21,7 C -0,4 C 43 % 87 % 1016,2 hPa 0,0 mm 0,0 km/h (0 Bft) O-SO 242 0 min 0,000 mm 0,0 UV-I 0 W/m -2,3 C -0,4 C 0,0 km/h (0 Bft) 98 %
01/03/2017 07:30 21,6 C -0,4 C 43 % 88 % 1016,3 hPa 0,0 mm 0,0 km/h (0 Bft) S-SO 196 0 min 0,000 mm 0,0 UV-I 0 W/m -2,1 C -0,4 C 0,0 km/h (0 Bft) 100 %
01/03/2017 07:35 21,6 C -0,5 C 43 % 88 % 1016,4 hPa 0,0 mm 0,0 km/h (0 Bft) S-SO 195 0 min 0,000 mm 0,0 UV-I 3 W/m -2,2 C -0,5 C 0,0 km/h (0 Bft) 100 %
01/03/2017 07:40 21,5 C -0,5 C 44 % 88 % 1016,6 hPa 0,0 mm 0,0 km/h (0 Bft) S-SO 195 0 min 0,000 mm 0,0 UV-I 7 W/m -2,2 C -0,5 C 0,0 km/h (0 Bft) 99 %
01/03/2017 07:45 21,4 C -0,6 C 44 % 89 % 1016,6 hPa 0,0 mm 0,0 km/h (0 Bft) S-SO 195 0 min 0,000 mm 0,0 UV-I 11 W/m -2,2 C -0,6 C 0,0 km/h (0 Bft) 98 %
01/03/2017 07:50 21,4 C -0,6 C 44 % 89 % 1016,6 hPa 0,0 mm 0,0 km/h (0 Bft) S-SO 195 0 min 0,000 mm 0,0 UV-I 14 W/m -2,2 C -0,6 C 0,0 km/h (0 Bft) 99 %
01/03/2017 07:55 21,3 C -0,6 C 44 % 89 % 1016,7 hPa 0,0 mm 0,0 km/h (0 Bft) S-SO 195 0 min 0,000 mm 0,0 UV-I 19 W/m -2,2 C -0,6 C 0,0 km/h (0 Bft) 97 %
01/03/2017 08:00 21,2 C -0,6 C 44 % 89 % 1016,8 hPa 0,0 mm 0,0 km/h (0 Bft) S-SO 195 0 min 0,000 mm 0,0 UV-I 22 W/m -2,2 C -0,6 C 0,0 km/h (0 Bft) 100 %
01/03/2017 08:05 21,2 C -0,6 C 44 % 89 % 1017,0 hPa 0,0 mm 0,0 km/h (0 Bft) S-SO 195 0 min 0,000 mm 0,0 UV-I 29 W/m -2,2 C -0,6 C 0,0 km/h (0 Bft) 100 %
01/03/2017 08:10 21,1 C -0,5 C 43 % 90 % 1017,1 hPa 0,0 mm 0,0 km/h (0 Bft) S-SO 195 0 min 0,000 mm 0,0 UV-I 40 W/m -1,9 C -0,5 C 0,0 km/h (0 Bft) 99 %
01/03/2017 08:15 21,0 C -0,4 C 43 % 90 % 1017,1 hPa 0,0 mm 0,0 km/h (0 Bft) S-SO 195 0 min 0,000 mm 0,0 UV-I 46 W/m -1,8 C -0,4 C 0,0 km/h (0 Bft) 99 %
01/03/2017 08:20 20,9 C -0,2 C 43 % 91 % 1017,0 hPa 0,0 mm 0,0 km/h (0 Bft) S-SO 195 5 min 0,000 mm 0,0 UV-I 53 W/m -1,5 C -0,2 C 0,0 km/h (0 Bft) 97 %
01/03/2017 08:25 20,9 C 0,1 C 44 % 91 % 1017,1 hPa 0,0 mm 0,0 km/h (0 Bft) S-SO 195 5 min 0,000 mm 0,0 UV-I 65 W/m -1,2 C 0,1 C 0,0 km/h (0 Bft) 100 %
01/03/2017 08:30 20,8 C 0,3 C 44 % 91 % 1017,1 hPa 0,0 mm 0,0 km/h (0 Bft) S-SO 195 5 min 0,000 mm 0,0 UV-I 81 W/m -1,0 C 0,3 C 0,0 km/h (0 Bft) 99 %
01/03/2017 08:35 20,7 C 0,5 C 44 % 90 % 1017,0 hPa 0,0 mm 0,0 km/h (0 Bft) S-SO 195 5 min 0,000 mm 0,0 UV-I 99 W/m -0,9 C 0,5 C 0,0 km/h (0 Bft) 99 %
01/03/2017 08:40 20,7 C 0,9 C 44 % 91 % 1017,0 hPa 0,0 mm 0,0 km/h (0 Bft) S-SO 195 5 min 0,000 mm 0,1 UV-I 117 W/m -0,4 C 0,9 C 0,0 km/h (0 Bft) 98 %
01/03/2017 08:45 20,6 C 1,3 C 44 % 90 % 1017,0 hPa 0,0 mm 0,0 km/h (0 Bft) S-SO 195 5 min 0,000 mm 0,5 UV-I 135 W/m -0,2 C 1,3 C 0,0 km/h (0 Bft) 99 %
01/03/2017 08:50 20,6 C 1,7 C 44 % 89 % 1017,1 hPa 0,0 mm 0,0 km/h (0 Bft) S-SO 195 5 min 0,000 mm 0,5 UV-I 156 W/m 0,1 C 1,7 C 0,0 km/h (0 Bft) 100 %
01/03/2017 08:55 20,5 C 2,0 C 44 % 90 % 1017,1 hPa 0,0 mm 0,0 km/h (0 Bft) S-SO 196 5 min 0,000 mm 0,6 UV-I 175 W/m 0,5 C 2,0 C 0,0 km/h (0 Bft) 99 %
01/03/2017 09:00 20,4 C 2,4 C 44 % 90 % 1017,2 hPa 0,0 mm 0,0 km/h (0 Bft) S 180 5 min 0,025 mm 0,6 UV-I 194 W/m 0,9 C 2,4 C 0,0 km/h (0 Bft) 100 %
01/03/2017 09:05 20,4 C 2,7 C 44 % 90 % 1017,2 hPa 0,0 mm 0,0 km/h (0 Bft) E-NE 71 5 min 0,000 mm 0,7 UV-I 212 W/m 1,2 C 2,7 C 0,0 km/h (0 Bft) 97 %
01/03/2017 09:10 20,4 C 3,3 C 44 % 89 % 1017,2 hPa 0,0 mm 0,0 km/h (0 Bft) E-NE 71 5 min 0,000 mm 0,8 UV-I 233 W/m 1,7 C 3,3 C 0,0 km/h (0 Bft) 99 %
01/03/2017 09:15 20,3 C 3,8 C 44 % 87 % 1017,4 hPa 0,0 mm 0,0 km/h (0 Bft) E-NE 71 5 min 0,000 mm 0,8 UV-I 252 W/m 1,8 C 3,8 C 0,0 km/h (0 Bft) 99 %
01/03/2017 09:20 20,3 C 4,3 C 44 % 85 % 1017,4 hPa 0,0 mm 0,0 km/h (0 Bft) E-NE 71 5 min 0,000 mm 0,9 UV-I 270 W/m 2,0 C 4,3 C 0,0 km/h (0 Bft) 98 %
01/03/2017 09:25 20,3 C 4,9 C 44 % 81 % 1017,5 hPa 0,0 mm 0,0 km/h (0 Bft) E-NE 58 5 min 0,000 mm 0,9 UV-I 287 W/m 1,9 C 4,9 C 0,0 km/h (0 Bft) 100 %
01/03/2017 09:30 20,2 C 5,4 C 44 % 79 % 1017,5 hPa 0,0 mm 0,0 km/h (0 Bft) E-NE 64 5 min 0,000 mm 1,0 UV-I 300 W/m 2,1 C 5,4 C 0,0 km/h (0 Bft) 98 %
01/03/2017 09:35 20,2 C 6,0 C 44 % 74 % 1017,6 hPa 0,0 mm 0,0 km/h (0 Bft) E-NE 64 5 min 0,000 mm 1,1 UV-I 315 W/m 1,7 C 6,0 C 0,0 km/h (0 Bft) 99 %
01/03/2017 09:40 20,2 C 6,4 C 44 % 72 % 1017,5 hPa 0,0 mm 0,0 km/h (0 Bft) E-NE 63 5 min 0,000 mm 1,2 UV-I 330 W/m 1,7 C 6,4 C 0,0 km/h (0 Bft) 98 %
01/03/2017 09:45 20,2 C 6,8 C 44 % 70 % 1017,5 hPa 0,0 mm 0,0 km/h (0 Bft) E-NE 63 5 min 0,000 mm 1,3 UV-I 344 W/m 1,7 C 6,8 C 0,0 km/h (0 Bft) 96 %
01/03/2017 09:50 20,1 C 7,1 C 44 % 70 % 1017,5 hPa 0,0 mm 0,7 km/h (0 Bft) E-NE 71 5 min 0,000 mm 1,3 UV-I 358 W/m 2,0 C 7,1 C 6,4 km/h (2 Bft) 97 %
01/03/2017 09:55 20,1 C 7,4 C 44 % 66 % 1017,5 hPa 0,0 mm 4,4 km/h (1 Bft) E-NE 63 5 min 0,000 mm 1,4 UV-I 373 W/m 1,5 C 7,4 C 6,4 km/h (2 Bft) 97 %
01/03/2017 10:00 20,1 C 7,7 C 44 % 66 % 1017,5 hPa 0,0 mm 2,2 km/h (1 Bft) E-NE 63 5 min 0,127 mm 1,5 UV-I 385 W/m 1,8 C 7,7 C 6,4 km/h (2 Bft) 97 %
01/03/2017 10:05 20,1 C 7,9 C 44 % 64 % 1017,6 hPa 0,0 mm 0,0 km/h (0 Bft) E-NE 78 5 min 0,000 mm 1,5 UV-I 400 W/m 1,5 C 7,9 C 0,0 km/h (0 Bft) 97 %
01/03/2017 10:10 20,1 C 8,3 C 44 % 62 % 1017,7 hPa 0,0 mm 2,0 km/h (1 Bft) E-SE 123 5 min 0,000 mm 1,6 UV-I 421 W/m 1,5 C 8,3 C 4,8 km/h (1 Bft) 97 %
01/03/2017 10:15 20,1 C 8,9 C 44 % 59 % 1017,7 hPa 0,0 mm 3,7 km/h (1 Bft) S-SE 147 5 min 0,000 mm 1,6 UV-I 424 W/m 1,3 C 8,9 C 6,4 km/h (2 Bft) 97 %
01/03/2017 10:20 20,1 C 9,3 C 44 % 60 % 1017,8 hPa 0,0 mm 2,9 km/h (1 Bft) S-SE 149 5 min 0,000 mm 1,7 UV-I 510 W/m 1,9 C 9,3 C 4,8 km/h (1 Bft) 97 %
01/03/2017 10:25 20,1 C 9,7 C 44 % 58 % 1017,9 hPa 0,0 mm 2,2 km/h (1 Bft) SE 132 5 min 0,000 mm 1,7 UV-I 453 W/m 1,8 C 9,7 C 6,4 km/h (2 Bft) 95 %
01/03/2017 10:30 20,1 C 10,1 C 44 % 56 % 1017,9 hPa 0,0 mm 3,6 km/h (1 Bft) S-SO 203 5 min 0,000 mm 1,8 UV-I 490 W/m 1,7 C 10,1 C 6,4 km/h (2 Bft) 98 %
01/03/2017 10:35 20,0 C 10,6 C 44 % 55 % 1017,9 hPa 0,0 mm 1,8 km/h (1 Bft) S-SO 202 5 min 0,000 mm 1,9 UV-I 504 W/m 1,9 C 10,6 C 3,2 km/h (1 Bft) 97 %
01/03/2017 10:40 20,0 C 10,8 C 44 % 54 % 1017,9 hPa 0,0 mm 3,5 km/h (1 Bft) S 173 5 min 0,000 mm 1,7 UV-I 378 W/m 1,9 C 10,8 C 8,0 km/h (2 Bft) 97 %
01/03/2017 10:45 20,0 C 10,9 C 44 % 55 % 1017,9 hPa 0,0 mm 2,5 km/h (1 Bft) S 190 5 min 0,000 mm 1,7 UV-I 358 W/m 2,2 C 10,9 C 6,4 km/h (2 Bft) 97 %
01/03/2017 10:50 20,0 C 11,1 C 44 % 51 % 1017,9 hPa 0,0 mm 3,5 km/h (1 Bft) S 190 5 min 0,000 mm 1,7 UV-I 365 W/m 1,4 C 11,1 C 6,4 km/h (2 Bft) 96 %
01/03/2017 10:55 19,9 C 11,3 C 44 % 48 % 1018,0 hPa 0,0 mm 5,3 km/h (1 Bft) SO 215 5 min 0,000 mm 1,8 UV-I 355 W/m 0,7 C 11,3 C 8,0 km/h (2 Bft) 96 %
01/03/2017 11:00 19,9 C 11,3 C 44 % 49 % 1018,0 hPa 0,0 mm 2,1 km/h (1 Bft) S-SO 194 5 min 0,203 mm 1,7 UV-I 307 W/m 1,0 C 11,3 C 6,4 km/h (2 Bft) 97 %
01/03/2017 11:05 19,9 C 11,4 C 44 % 49 % 1018,0 hPa 0,0 mm 2,2 km/h (1 Bft) S 184 5 min 0,000 mm 1,7 UV-I 305 W/m 1,1 C 11,4 C 6,4 km/h (2 Bft) 97 %
01/03/2017 11:10 19,9 C 11,5 C 45 % 50 % 1018,0 hPa 0,0 mm 4,7 km/h (1 Bft) S-SO 198 5 min 0,000 mm 1,7 UV-I 297 W/m 1,4 C 11,5 C 11,3 km/h (2 Bft) 97 %
01/03/2017 11:15 20,1 C 11,6 C 45 % 49 % 1018,1 hPa 0,0 mm 2,6 km/h (1 Bft) S-SO 192 5 min 0,000 mm 1,8 UV-I 309 W/m 1,3 C 11,6 C 4,8 km/h (1 Bft) 98 %
01/03/2017 11:20 20,3 C 11,6 C 45 % 46 % 1018,1 hPa 0,0 mm 2,7 km/h (1 Bft) S-SO 200 5 min 0,000 mm 1,7 UV-I 293 W/m 0,4 C 11,6 C 4,8 km/h (1 Bft) 99 %
01/03/2017 11:25 20,7 C 11,7 C 45 % 46 % 1018,1 hPa 0,0 mm 3,2 km/h (1 Bft) S-SO 194 5 min 0,000 mm 1,8 UV-I 292 W/m 0,5 C 11,7 C 6,4 km/h (2 Bft) 100 %
01/03/2017 11:30 20,9 C 11,8 C 44 % 48 % 1018,1 hPa 0,0 mm 3,9 km/h (1 Bft) S-SO 208 5 min 0,000 mm 1,9 UV-I 346 W/m 1,2 C 11,8 C 8,0 km/h (2 Bft) 98 %
01/03/2017 11:35 21,1 C 11,9 C 44 % 45 % 1018,0 hPa 0,0 mm 0,1 km/h (0 Bft) S-SO 208 5 min 0,000 mm 2,1 UV-I 396 W/m 0,4 C 11,9 C 3,2 km/h (1 Bft) 98 %
01/03/2017 11:40 21,3 C 12,2 C 44 % 45 % 1017,9 hPa 0,0 mm 0,0 km/h (0 Bft) S-SO 209 5 min 0,000 mm 2,2 UV-I 446 W/m 0,6 C 12,2 C 0,0 km/h (0 Bft) 98 %
01/03/2017 11:45 21,4 C 12,3 C 44 % 44 % 1017,7 hPa 0,0 mm 3,8 km/h (1 Bft) O-NO 294 5 min 0,000 mm 2,1 UV-I 401 W/m 0,4 C 12,3 C 11,3 km/h (2 Bft) 98 %
01/03/2017 11:50 21,4 C 12,5 C 44 % 45 % 1017,6 hPa 0,0 mm 1,8 km/h (1 Bft) O 281 5 min 0,000 mm 2,1 UV-I 403 W/m 0,9 C 12,5 C 6,4 km/h (2 Bft) 98 %
01/03/2017 11:55 21,5 C 12,8 C 44 % 46 % 1017,6 hPa 0,0 mm 1,7 km/h (1 Bft) O-SO 239 5 min 0,000 mm 2,3 UV-I 474 W/m 1,5 C 12,8 C 4,8 km/h (1 Bft) 99 %
01/03/2017 12:00 21,5 C 13,0 C 43 % 44 % 1017,6 hPa 0,0 mm 1,2 km/h (1 Bft) O-SO 240 5 min 0,204 mm 2,2 UV-I 392 W/m 1,0 C 13,0 C 4,8 km/h (1 Bft) 99 %
01/03/2017 12:05 21,5 C 13,1 C 43 % 44 % 1017,5 hPa 0,0 mm 3,0 km/h (1 Bft) O-NO 291 5 min 0,000 mm 2,2 UV-I 392 W/m 1,1 C 13,1 C 9,7 km/h (2 Bft) 97 %
01/03/2017 12:10 21,5 C 13,3 C 44 % 46 % 1017,4 hPa 0,0 mm 3,7 km/h (1 Bft) O-SO 249 5 min 0,000 mm 2,5 UV-I 467 W/m 1,9 C 13,3 C 6,4 km/h (2 Bft) 98 %
01/03/2017 12:15 21,5 C 13,6 C 44 % 42 % 1017,4 hPa 0,0 mm 2,9 km/h (1 Bft) O-SO 238 5 min 0,000 mm 2,5 UV-I 436 W/m 0,9 C 13,6 C 6,4 km/h (2 Bft) 99 %
01/03/2017 12:20 21,5 C 13,9 C 43 % 40 % 1017,3 hPa 0,0 mm 5,9 km/h (2 Bft) O-NO 297 5 min 0,000 mm 2,9 UV-I 665 W/m 0,5 C 13,9 C 14,5 km/h (3 Bft) 98 %
01/03/2017 12:25 21,5 C 14,0 C 44 % 42 % 1017,2 hPa 0,0 mm 2,8 km/h (1 Bft) SO 232 5 min 0,000 mm 2,8 UV-I 689 W/m 1,3 C 14,0 C 6,4 km/h (2 Bft) 100 %
01/03/2017 12:30 21,5 C 14,2 C 44 % 41 % 1017,2 hPa 0,0 mm 3,4 km/h (1 Bft) SO 219 5 min 0,000 mm 2,8 UV-I 659 W/m 1,1 C 14,2 C 9,7 km/h (2 Bft) 100 %
01/03/2017 12:35 21,4 C 14,5 C 44 % 44 % 1017,0 hPa 0,0 mm 0,8 km/h (0 Bft) SO 218 5 min 0,000 mm 2,9 UV-I 675 W/m 2,4 C 14,5 C 3,2 km/h (1 Bft) 99 %
01/03/2017 12:40 21,4 C 14,6 C 44 % 39 % 1017,0 hPa 0,0 mm 2,9 km/h (1 Bft) S-SO 213 5 min 0,000 mm 2,6 UV-I 496 W/m 0,8 C 14,6 C 6,4 km/h (2 Bft) 99 %
01/03/2017 12:45 21,4 C 14,6 C 44 % 39 % 1016,9 hPa 0,0 mm 2,2 km/h (1 Bft) S-SO 212 5 min 0,000 mm 2,3 UV-I 305 W/m 0,8 C 14,6 C 6,4 km/h (2 Bft) 97 %
01/03/2017 12:50 21,4 C 14,7 C 44 % 41 % 1016,9 hPa 0,0 mm 1,9 km/h (1 Bft) S-SO 212 5 min 0,000 mm 2,8 UV-I 618 W/m 1,6 C 14,7 C 8,0 km/h (2 Bft) 99 %
01/03/2017 12:55 21,4 C 14,9 C 44 % 42 % 1016,9 hPa 0,0 mm 2,2 km/h (1 Bft) NO 313 5 min 0,000 mm 3,0 UV-I 692 W/m 2,1 C 14,9 C 8,0 km/h (2 Bft) 98 %
01/03/2017 13:00 21,4 C 15,2 C 44 % 40 % 1016,9 hPa 0,0 mm 2,7 km/h (1 Bft) O 262 5 min 0,304 mm 3,0 UV-I 685 W/m 1,7 C 15,2 C 9,7 km/h (2 Bft) 99 %
01/03/2017 13:05 21,5 C 15,4 C 44 % 39 % 1016,7 hPa 0,0 mm 3,0 km/h (1 Bft) S 173 5 min 0,000 mm 3,0 UV-I 687 W/m 1,5 C 15,4 C 8,0 km/h (2 Bft) 100 %
01/03/2017 13:10 21,5 C 15,5 C 45 % 37 % 1016,6 hPa 0,0 mm 3,8 km/h (1 Bft) S-SO 202 5 min 0,000 mm 3,0 UV-I 702 W/m 0,9 C 15,5 C 9,7 km/h (2 Bft) 99 %
01/03/2017 13:15 21,6 C 15,6 C 45 % 38 % 1016,5 hPa 0,0 mm 3,9 km/h (1 Bft) S 175 5 min 0,000 mm 3,0 UV-I 693 W/m 1,3 C 15,6 C 9,7 km/h (2 Bft) 99 %
01/03/2017 13:20 21,6 C 15,1 C 45 % 38 % 1016,5 hPa 0,0 mm 3,8 km/h (1 Bft) S-SO 207 5 min 0,000 mm 3,0 UV-I 680 W/m 0,9 C 15,1 C 6,4 km/h (2 Bft) 98 %
01/03/2017 13:25 21,6 C 13,9 C 45 % 39 % 1016,3 hPa 0,0 mm 4,0 km/h (1 Bft) NO 322 5 min 0,000 mm 3,1 UV-I 670 W/m 0,2 C 13,9 C 8,0 km/h (2 Bft) 98 %
01/03/2017 13:30 21,6 C 13,8 C 45 % 40 % 1016,3 hPa 0,0 mm 2,9 km/h (1 Bft) N-NO 329 5 min 0,000 mm 3,1 UV-I 666 W/m 0,4 C 13,8 C 6,4 km/h (2 Bft) 100 %
01/03/2017 13:35 21,7 C 13,8 C 45 % 39 % 1016,2 hPa 0,0 mm 0,9 km/h (0 Bft) N-NO 340 5 min 0,000 mm 3,1 UV-I 664 W/m 0,1 C 13,8 C 4,8 km/h (1 Bft) 99 %
01/03/2017 13:40 21,7 C 14,2 C 45 % 37 % 1016,2 hPa 0,0 mm 2,1 km/h (1 Bft) N-NO 340 5 min 0,000 mm 3,1 UV-I 663 W/m -0,3 C 14,2 C 4,8 km/h (1 Bft) 99 %
01/03/2017 13:45 21,8 C 14,2 C 45 % 37 % 1016,0 hPa 0,0 mm 4,6 km/h (1 Bft) NE 35 5 min 0,000 mm 3,1 UV-I 660 W/m -0,3 C 14,2 C 11,3 km/h (2 Bft) 99 %
01/03/2017 13:50 21,8 C 14,5 C 44 % 39 % 1016,0 hPa 0,0 mm 3,8 km/h (1 Bft) O-NO 299 5 min 0,000 mm 3,1 UV-I 657 W/m 0,7 C 14,5 C 8,0 km/h (2 Bft) 100 %
01/03/2017 13:55 21,8 C 14,9 C 44 % 38 % 1015,9 hPa 0,0 mm 3,2 km/h (1 Bft) O-NO 292 5 min 0,000 mm 3,1 UV-I 657 W/m 0,7 C 14,9 C 14,5 km/h (3 Bft) 98 %
01/03/2017 14:00 21,8 C 14,5 C 44 % 39 % 1015,9 hPa 0,0 mm 6,4 km/h (2 Bft) O-NO 292 5 min 0,381 mm 3,1 UV-I 652 W/m 0,7 C 14,5 C 16,1 km/h (3 Bft) 99 %
01/03/2017 14:05 21,8 C 14,6 C 44 % 41 % 1015,8 hPa 0,0 mm 3,2 km/h (1 Bft) O-NO 292 5 min 0,000 mm 3,0 UV-I 647 W/m 1,5 C 14,6 C 8,0 km/h (2 Bft) 98 %
01/03/2017 14:10 21,9 C 14,8 C 44 % 38 % 1015,7 hPa 0,0 mm 6,4 km/h (2 Bft) NO 315 5 min 0,000 mm 3,0 UV-I 643 W/m 0,6 C 14,8 C 14,5 km/h (3 Bft) 100 %
01/03/2017 14:15 21,9 C 14,8 C 45 % 38 % 1015,7 hPa 0,0 mm 8,0 km/h (2 Bft) N-NO 337 5 min 0,000 mm 3,0 UV-I 638 W/m 0,6 C 13,9 C 14,5 km/h (3 Bft) 99 %
01/03/2017 14:20 22,0 C 14,6 C 45 % 39 % 1015,7 hPa 0,0 mm 6,4 km/h (2 Bft) NO 315 5 min 0,000 mm 3,0 UV-I 633 W/m 0,8 C 14,6 C 14,5 km/h (3 Bft) 100 %
01/03/2017 14:25 22,1 C 14,6 C 45 % 40 % 1015,6 hPa 0,0 mm 3,2 km/h (1 Bft) NO 315 5 min 0,000 mm 3,0 UV-I 628 W/m 1,2 C 14,6 C 6,4 km/h (2 Bft) 100 %
01/03/2017 14:30 22,1 C 14,8 C 44 % 43 % 1015,6 hPa 0,0 mm 3,2 km/h (1 Bft) NO 315 5 min 0,000 mm 3,0 UV-I 622 W/m 2,3 C 14,8 C 9,7 km/h (2 Bft) 98 %
01/03/2017 14:35 22,1 C 14,8 C 44 % 42 % 1015,5 hPa 0,0 mm 4,8 km/h (1 Bft) NO 315 5 min 0,000 mm 2,9 UV-I 615 W/m 2,0 C 14,8 C 9,7 km/h (2 Bft) 99 %
01/03/2017 14:40 22,1 C 14,6 C 44 % 43 % 1015,5 hPa 0,0 mm 4,8 km/h (1 Bft) N-NE 22 5 min 0,000 mm 2,9 UV-I 609 W/m 2,2 C 14,6 C 12,9 km/h (3 Bft) 99 %
01/03/2017 14:45 22,2 C 14,8 C 44 % 46 % 1015,5 hPa 0,0 mm 3,2 km/h (1 Bft) N-NE 22 5 min 0,000 mm 2,9 UV-I 601 W/m 3,3 C 14,8 C 8,0 km/h (2 Bft) 100 %
01/03/2017 14:50 22,2 C 14,9 C 44 % 38 % 1015,5 hPa 0,0 mm 4,8 km/h (1 Bft) NO 315 5 min 0,000 mm 2,8 UV-I 594 W/m 0,7 C 14,9 C 12,9 km/h (3 Bft) 99 %
01/03/2017 14:55 22,2 C 15,2 C 44 % 43 % 1015,4 hPa 0,0 mm 4,8 km/h (1 Bft) O-NO 292 5 min 0,000 mm 2,8 UV-I 587 W/m 2,7 C 15,2 C 9,7 km/h (2 Bft) 100 %
01/03/2017 15:00 22,1 C 15,2 C 44 % 43 % 1015,4 hPa 0,0 mm 1,6 km/h (1 Bft) O-NO 292 5 min 0,356 mm 2,7 UV-I 579 W/m 2,7 C 15,2 C 4,8 km/h (1 Bft) 98 %
01/03/2017 15:05 22,1 C 15,6 C 44 % 40 % 1015,3 hPa 0,0 mm 1,6 km/h (1 Bft) S 180 5 min 0,000 mm 2,6 UV-I 571 W/m 2,1 C 15,6 C 8,0 km/h (2 Bft) 99 %
01/03/2017 15:10 22,1 C 15,7 C 44 % 42 % 1015,4 hPa 0,0 mm 1,6 km/h (1 Bft) S-SO 202 5 min 0,000 mm 2,6 UV-I 564 W/m 2,8 C 15,7 C 6,4 km/h (2 Bft) 100 %
01/03/2017 15:15 22,1 C 15,8 C 44 % 42 % 1015,4 hPa 0,0 mm 3,2 km/h (1 Bft) S-SO 202 5 min 0,000 mm 2,5 UV-I 555 W/m 2,9 C 15,8 C 8,0 km/h (2 Bft) 100 %
01/03/2017 15:20 22,0 C 15,8 C 44 % 41 % 1015,4 hPa 0,0 mm 3,2 km/h (1 Bft) SO 225 5 min 0,000 mm 2,5 UV-I 548 W/m 2,6 C 15,8 C 4,8 km/h (1 Bft) 99 %
01/03/2017 15:25 22,0 C 15,5 C 44 % 45 % 1015,3 hPa 0,0 mm 4,8 km/h (1 Bft) SO 225 5 min 0,000 mm 2,4 UV-I 522 W/m 3,6 C 15,5 C 12,9 km/h (3 Bft) 99 %
01/03/2017 15:30 22,0 C 15,3 C 44 % 45 % 1015,3 hPa 0,0 mm 8,0 km/h (2 Bft) N-NO 337 5 min 0,000 mm 2,2 UV-I 431 W/m 3,4 C 14,4 C 16,1 km/h (3 Bft) 100 %
01/03/2017 15:35 21,9 C 15,6 C 44 % 45 % 1015,3 hPa 0,0 mm 4,8 km/h (1 Bft) NO 315 5 min 0,000 mm 2,3 UV-I 518 W/m 3,7 C 15,6 C 16,1 km/h (3 Bft) 98 %
01/03/2017 15:40 21,9 C 15,2 C 44 % 46 % 1015,3 hPa 0,0 mm 8,0 km/h (2 Bft) N-NO 337 5 min 0,000 mm 2,2 UV-I 516 W/m 3,7 C 14,3 C 16,1 km/h (3 Bft) 100 %
01/03/2017 15:45 21,9 C 15,1 C 44 % 49 % 1015,3 hPa 0,0 mm 6,4 km/h (2 Bft) N 360 5 min 0,000 mm 2,2 UV-I 493 W/m 4,5 C 15,1 C 12,9 km/h (3 Bft) 99 %
01/03/2017 15:50 21,9 C 15,1 C 44 % 48 % 1015,2 hPa 0,0 mm 4,8 km/h (1 Bft) N 360 5 min 0,000 mm 2,2 UV-I 486 W/m 4,2 C 15,1 C 9,7 km/h (2 Bft) 99 %
01/03/2017 15:55 21,9 C 15,2 C 44 % 49 % 1015,1 hPa 0,0 mm 8,0 km/h (2 Bft) N 360 5 min 0,000 mm 2,1 UV-I 472 W/m 4,6 C 14,3 C 16,1 km/h (3 Bft) 100 %
01/03/2017 16:00 21,9 C 15,2 C 44 % 52 % 1015,0 hPa 0,0 mm 8,0 km/h (2 Bft) N-NO 337 5 min 0,305 mm 2,0 UV-I 432 W/m 5,4 C 14,3 C 14,5 km/h (3 Bft) 99 %
01/03/2017 16:05 21,8 C 15,2 C 44 % 47 % 1015,1 hPa 0,0 mm 6,4 km/h (2 Bft) NO 315 5 min 0,000 mm 1,8 UV-I 229 W/m 4,0 C 15,2 C 14,5 km/h (3 Bft) 100 %
01/03/2017 16:10 21,8 C 15,1 C 44 % 49 % 1015,0 hPa 0,0 mm 3,2 km/h (1 Bft) N-NO 337 5 min 0,000 mm 1,6 UV-I 293 W/m 4,5 C 15,1 C 9,7 km/h (2 Bft) 100 %
01/03/2017 16:15 21,8 C 15,1 C 45 % 54 % 1015,0 hPa 0,0 mm 4,8 km/h (1 Bft) N-NO 337 5 min 0,000 mm 1,4 UV-I 88 W/m 5,9 C 15,1 C 8,0 km/h (2 Bft) 99 %
01/03/2017 16:20 21,8 C 15,3 C 45 % 51 % 1015,1 hPa 0,0 mm 6,4 km/h (2 Bft) N-NO 337 5 min 0,000 mm 1,3 UV-I 131 W/m 5,2 C 15,3 C 12,9 km/h (3 Bft) 100 %
01/03/2017 16:25 21,8 C 15,2 C 45 % 50 % 1015,1 hPa 0,0 mm 6,4 km/h (2 Bft) N-NO 337 5 min 0,000 mm 1,3 UV-I 130 W/m 4,8 C 15,2 C 12,9 km/h (3 Bft) 99 %
01/03/2017 16:30 21,8 C 15,3 C 45 % 50 % 1015,1 hPa 0,0 mm 6,4 km/h (2 Bft) O-NO 292 5 min 0,000 mm 1,3 UV-I 274 W/m 4,9 C 15,3 C 12,9 km/h (3 Bft) 100 %
01/03/2017 16:35 21,9 C 15,3 C 45 % 50 % 1015,0 hPa 0,0 mm 6,4 km/h (2 Bft) N-NO 337 5 min 0,000 mm 1,2 UV-I 144 W/m 4,9 C 15,3 C 12,9 km/h (3 Bft) 100 %
01/03/2017 16:40 21,9 C 15,2 C 45 % 50 % 1015,0 hPa 0,0 mm 6,4 km/h (2 Bft) N 360 5 min 0,000 mm 1,3 UV-I 318 W/m 4,8 C 15,2 C 12,9 km/h (3 Bft) 100 %
01/03/2017 16:45 21,9 C 15,2 C 45 % 51 % 1015,1 hPa 0,0 mm 6,4 km/h (2 Bft) N 360 5 min 0,000 mm 1,3 UV-I 336 W/m 5,1 C 15,2 C 12,9 km/h (3 Bft) 98 %
01/03/2017 16:50 21,9 C 15,1 C 45 % 52 % 1015,1 hPa 0,0 mm 8,0 km/h (2 Bft) N 360 5 min 0,000 mm 1,2 UV-I 326 W/m 5,3 C 14,2 C 12,9 km/h (3 Bft) 100 %
01/03/2017 16:55 21,9 C 15,1 C 44 % 51 % 1015,1 hPa 0,0 mm 6,4 km/h (2 Bft) N 360 5 min 0,000 mm 1,2 UV-I 258 W/m 5,0 C 15,1 C 9,7 km/h (2 Bft) 100 %
01/03/2017 17:00 21,9 C 15,1 C 44 % 54 % 1015,1 hPa 0,0 mm 4,8 km/h (1 Bft) N-NO 337 5 min 0,152 mm 1,0 UV-I 124 W/m 5,9 C 15,1 C 8,0 km/h (2 Bft) 100 %
01/03/2017 17:05 21,9 C 15,0 C 45 % 53 % 1015,1 hPa 0,0 mm 6,4 km/h (2 Bft) N 360 5 min 0,000 mm 0,9 UV-I 135 W/m 5,5 C 15,0 C 14,5 km/h (3 Bft) 99 %
01/03/2017 17:10 21,9 C 15,0 C 45 % 52 % 1015,2 hPa 0,0 mm 6,4 km/h (2 Bft) N 360 5 min 0,000 mm 0,9 UV-I 107 W/m 5,2 C 15,0 C 12,9 km/h (3 Bft) 100 %
01/03/2017 17:15 21,9 C 14,9 C 45 % 52 % 1015,1 hPa 0,0 mm 8,0 km/h (2 Bft) N 360 5 min 0,000 mm 0,7 UV-I 91 W/m 5,1 C 14,0 C 17,7 km/h (3 Bft) 100 %
01/03/2017 17:20 21,8 C 14,8 C 45 % 52 % 1015,1 hPa 0,0 mm 6,4 km/h (2 Bft) N-NO 337 5 min 0,000 mm 0,3 UV-I 55 W/m 5,0 C 14,8 C 9,7 km/h (2 Bft) 100 %
01/03/2017 17:25 21,8 C 14,7 C 45 % 52 % 1015,1 hPa 0,0 mm 3,2 km/h (1 Bft) N-NO 337 0 min 0,000 mm 0,0 UV-I 43 W/m 5,0 C 14,7 C 9,7 km/h (2 Bft) 100 %
01/03/2017 17:30 21,8 C 14,7 C 45 % 53 % 1015,2 hPa 0,0 mm 4,8 km/h (1 Bft) N-NO 337 0 min 0,000 mm 0,0 UV-I 34 W/m 5,2 C 14,7 C 9,7 km/h (2 Bft) 99 %
01/03/2017 17:35 21,9 C 14,7 C 45 % 54 % 1015,2 hPa 0,0 mm 3,2 km/h (1 Bft) NO 315 0 min 0,000 mm 0,0 UV-I 25 W/m 5,5 C 14,7 C 6,4 km/h (2 Bft) 100 %
01/03/2017 17:35 21,9 C 14,6 C 45 % 55 % 1015,2 hPa 0,0 mm 2,4 km/h (1 Bft) N 355 0 min 0,000 mm 0,0 UV-I 21 W/m 5,7 C 14,6 C 4,8 km/h (1 Bft) 100 %
01/03/2017 17:40 21,9 C 14,4 C 45 % 54 % 1015,1 hPa 0,0 mm 2,1 km/h (1 Bft) N-NO 343 0 min 0,000 mm 0,0 UV-I 24 W/m 5,2 C 14,4 C 4,8 km/h (1 Bft) 99 %
01/03/2017 17:45 21,9 C 14,3 C 45 % 54 % 1015,1 hPa 0,0 mm 1,4 km/h (1 Bft) N-NO 344 0 min 0,000 mm 0,0 UV-I 25 W/m 5,1 C 14,3 C 6,4 km/h (2 Bft) 100 %
01/03/2017 17:50 21,9 C 14,3 C 45 % 53 % 1015,2 hPa 0,0 mm 0,3 km/h (0 Bft) N-NO 344 0 min 0,000 mm 0,0 UV-I 25 W/m 4,9 C 14,3 C 3,2 km/h (1 Bft) 98 %
01/03/2017 17:55 22,0 C 14,3 C 45 % 53 % 1015,2 hPa 0,0 mm 0,0 km/h (0 Bft) N-NO 343 0 min 0,000 mm 0,0 UV-I 24 W/m 4,9 C 14,3 C 0,0 km/h (0 Bft) 99 %
01/03/2017 18:00 22,1 C 14,3 C 45 % 54 % 1015,2 hPa 0,0 mm 2,5 km/h (1 Bft) NO 323 0 min 0,051 mm 0,0 UV-I 21 W/m 5,1 C 14,3 C 8,0 km/h (2 Bft) 97 %
01/03/2017 18:05 22,1 C 14,4 C 45 % 55 % 1015,3 hPa 0,0 mm 4,2 km/h (1 Bft) NO 325 0 min 0,000 mm 0,0 UV-I 21 W/m 5,5 C 14,4 C 8,0 km/h (2 Bft) 97 %
01/03/2017 18:10 22,2 C 14,3 C 45 % 56 % 1015,3 hPa 0,0 mm 2,1 km/h (1 Bft) NO 325 0 min 0,000 mm 0,0 UV-I 21 W/m 5,6 C 14,3 C 4,8 km/h (1 Bft) 98 %
01/03/2017 18:15 22,2 C 14,3 C 45 % 55 % 1015,4 hPa 0,0 mm 0,8 km/h (0 Bft) NO 325 0 min 0,000 mm 0,0 UV-I 18 W/m 5,4 C 14,3 C 3,2 km/h (1 Bft) 97 %
01/03/2017 18:20 22,3 C 14,3 C 45 % 56 % 1015,5 hPa 0,0 mm 0,0 km/h (0 Bft) NO 325 0 min 0,000 mm 0,0 UV-I 14 W/m 5,6 C 14,3 C 0,0 km/h (0 Bft) 97 %
01/03/2017 18:25 22,3 C 14,2 C 45 % 56 % 1015,5 hPa 0,0 mm 0,0 km/h (0 Bft) NO 325 0 min 0,000 mm 0,0 UV-I 14 W/m 5,6 C 14,2 C 0,0 km/h (0 Bft) 97 %
01/03/2017 18:30 22,4 C 14,1 C 45 % 57 % 1015,6 hPa 0,0 mm 0,0 km/h (0 Bft) NO 325 0 min 0,000 mm 0,0 UV-I 12 W/m 5,7 C 14,1 C 0,0 km/h (0 Bft) 96 %
01/03/2017 18:35 22,4 C 13,9 C 45 % 57 % 1015,6 hPa 0,0 mm 0,0 km/h (0 Bft) NO 325 0 min 0,000 mm 0,0 UV-I 10 W/m 5,5 C 13,9 C 0,0 km/h (0 Bft) 97 %
01/03/2017 18:40 22,4 C 13,8 C 45 % 58 % 1015,7 hPa 0,0 mm 0,0 km/h (0 Bft) NO 325 0 min 0,000 mm 0,0 UV-I 7 W/m 5,7 C 13,8 C 0,0 km/h (0 Bft) 98 %
01/03/2017 18:45 22,4 C 13,6 C 45 % 59 % 1015,7 hPa 0,0 mm 0,0 km/h (0 Bft) NO 325 0 min 0,000 mm 0,0 UV-I 3 W/m 5,7 C 13,6 C 0,0 km/h (0 Bft) 97 %
01/03/2017 18:50 22,5 C 13,2 C 45 % 62 % 1015,7 hPa 0,0 mm 0,0 km/h (0 Bft) NO 325 0 min 0,000 mm 0,0 UV-I 0 W/m 6,1 C 13,2 C 0,0 km/h (0 Bft) 97 %
01/03/2017 18:55 22,6 C 12,7 C 45 % 63 % 1015,8 hPa 0,0 mm 0,0 km/h (0 Bft) NO 325 0 min 0,000 mm 0,0 UV-I 0 W/m 5,8 C 12,7 C 0,0 km/h (0 Bft) 97 %
01/03/2017 19:00 22,6 C 12,3 C 45 % 64 % 1015,8 hPa 0,0 mm 0,0 km/h (0 Bft) NO 325 0 min 0,025 mm 0,0 UV-I 0 W/m 5,7 C 12,3 C 0,0 km/h (0 Bft) 96 %
01/03/2017 19:05 22,6 C 11,9 C 45 % 65 % 1016,0 hPa 0,0 mm 0,0 km/h (0 Bft) NO 304 0 min 0,000 mm 0,0 UV-I 0 W/m 5,5 C 11,9 C 0,0 km/h (0 Bft) 97 %
01/03/2017 19:10 22,7 C 11,4 C 46 % 67 % 1016,0 hPa 0,0 mm 0,0 km/h (0 Bft) O-NO 303 0 min 0,000 mm 0,0 UV-I 0 W/m 5,5 C 11,4 C 0,0 km/h (0 Bft) 95 %
01/03/2017 19:15 22,7 C 10,9 C 45 % 68 % 1016,1 hPa 0,0 mm 0,0 km/h (0 Bft) O-NO 303 0 min 0,000 mm 0,0 UV-I 0 W/m 5,2 C 10,9 C 0,0 km/h (0 Bft) 96 %
01/03/2017 19:20 22,7 C 10,5 C 45 % 69 % 1016,2 hPa 0,0 mm 0,3 km/h (0 Bft) S-SO 213 0 min 0,000 mm 0,0 UV-I 0 W/m 5,1 C 10,5 C 3,2 km/h (1 Bft) 97 %
01/03/2017 19:25 22,7 C 10,2 C 45 % 71 % 1016,3 hPa 0,0 mm 1,7 km/h (1 Bft) S-SO 213 0 min 0,000 mm 0,0 UV-I 0 W/m 5,2 C 10,2 C 6,4 km/h (2 Bft) 97 %
01/03/2017 19:30 22,8 C 9,9 C 45 % 72 % 1016,3 hPa 0,0 mm 0,0 km/h (0 Bft) S-SO 213 0 min 0,000 mm 0,0 UV-I 0 W/m 5,1 C 9,9 C 0,0 km/h (0 Bft) 95 %
01/03/2017 19:35 22,8 C 9,7 C 45 % 73 % 1016,4 hPa 0,0 mm 0,0 km/h (0 Bft) S-SO 213 0 min 0,000 mm 0,0 UV-I 0 W/m 5,1 C 9,7 C 0,0 km/h (0 Bft) 95 %
01/03/2017 19:40 22,8 C 9,4 C 46 % 73 % 1016,4 hPa 0,0 mm 0,0 km/h (0 Bft) S-SO 213 0 min 0,000 mm 0,0 UV-I 0 W/m 4,8 C 9,4 C 0,0 km/h (0 Bft) 93 %
01/03/2017 19:45 22,8 C 9,2 C 46 % 74 % 1016,5 hPa 0,0 mm 0,0 km/h (0 Bft) S-SO 213 0 min 0,000 mm 0,0 UV-I 0 W/m 4,8 C 9,2 C 0,0 km/h (0 Bft) 96 %
01/03/2017 19:50 22,8 C 9,0 C 46 % 75 % 1016,5 hPa 0,0 mm 0,0 km/h (0 Bft) S-SO 213 0 min 0,000 mm 0,0 UV-I 0 W/m 4,8 C 9,0 C 0,0 km/h (0 Bft) 97 %
01/03/2017 19:55 22,8 C 8,8 C 46 % 76 % 1016,6 hPa 0,0 mm 0,0 km/h (0 Bft) S-SO 213 0 min 0,000 mm 0,0 UV-I 0 W/m 4,8 C 8,8 C 0,0 km/h (0 Bft) 97 %
01/03/2017 20:00 22,9 C 8,7 C 46 % 77 % 1016,6 hPa 0,0 mm 0,0 km/h (0 Bft) S-SO 213 0 min 0,026 mm 0,0 UV-I 0 W/m 4,9 C 8,7 C 0,0 km/h (0 Bft) 97 %
01/03/2017 20:05 22,9 C 8,4 C 46 % 77 % 1016,7 hPa 0,0 mm 0,0 km/h (0 Bft) S-SO 213 0 min 0,000 mm 0,0 UV-I 0 W/m 4,6 C 8,4 C 0,0 km/h (0 Bft) 97 %
01/03/2017 20:10 22,9 C 8,2 C 46 % 77 % 1016,9 hPa 0,0 mm 0,0 km/h (0 Bft) S-SO 213 0 min 0,000 mm 0,0 UV-I 0 W/m 4,4 C 8,2 C 0,0 km/h (0 Bft) 97 %
01/03/2017 20:15 22,9 C 8,1 C 46 % 78 % 1016,9 hPa 0,0 mm 0,0 km/h (0 Bft) S-SO 213 0 min 0,000 mm 0,0 UV-I 0 W/m 4,5 C 8,1 C 0,0 km/h (0 Bft) 97 %
01/03/2017 20:20 23,0 C 7,9 C 47 % 79 % 1016,9 hPa 0,0 mm 0,0 km/h (0 Bft) S-SO 213 0 min 0,000 mm 0,0 UV-I 0 W/m 4,5 C 7,9 C 0,0 km/h (0 Bft) 97 %
01/03/2017 20:25 23,0 C 7,8 C 47 % 80 % 1016,9 hPa 0,0 mm 0,0 km/h (0 Bft) S-SO 213 0 min 0,000 mm 0,0 UV-I 0 W/m 4,6 C 7,8 C 0,0 km/h (0 Bft) 97 %
01/03/2017 20:30 23,1 C 7,6 C 47 % 80 % 1017,0 hPa 0,0 mm 0,0 km/h (0 Bft) S-SO 213 0 min 0,000 mm 0,0 UV-I 0 W/m 4,4 C 7,6 C 0,0 km/h (0 Bft) 97 %
01/03/2017 20:35 23,1 C 7,4 C 47 % 81 % 1017,0 hPa 0,0 mm 0,0 km/h (0 Bft) S-SO 213 0 min 0,000 mm 0,0 UV-I 0 W/m 4,4 C 7,4 C 0,0 km/h (0 Bft) 96 %
01/03/2017 20:40 23,1 C 7,4 C 47 % 82 % 1017,1 hPa 0,0 mm 0,0 km/h (0 Bft) S-SO 213 0 min 0,000 mm 0,0 UV-I 0 W/m 4,5 C 7,4 C 0,0 km/h (0 Bft) 97 %
01/03/2017 20:45 23,1 C 7,3 C 47 % 82 % 1017,1 hPa 0,0 mm 0,0 km/h (0 Bft) S-SO 213 0 min 0,000 mm 0,0 UV-I 0 W/m 4,4 C 7,3 C 0,0 km/h (0 Bft) 97 %
01/03/2017 20:50 23,1 C 7,3 C 47 % 83 % 1017,2 hPa 0,0 mm 0,0 km/h (0 Bft) S-SO 213 0 min 0,000 mm 0,0 UV-I 0 W/m 4,6 C 7,3 C 0,0 km/h (0 Bft) 93 %
01/03/2017 20:55 23,2 C 7,3 C 47 % 83 % 1017,2 hPa 0,0 mm 0,0 km/h (0 Bft) S-SO 213 0 min 0,000 mm 0,0 UV-I 0 W/m 4,6 C 7,3 C 0,0 km/h (0 Bft) 98 %
01/03/2017 21:00 23,2 C 7,3 C 47 % 83 % 1017,3 hPa 0,0 mm 0,0 km/h (0 Bft) S-SO 213 0 min 0,025 mm 0,0 UV-I 0 W/m 4,6 C 7,3 C 0,0 km/h (0 Bft) 97 %
01/03/2017 21:05 23,2 C 7,3 C 47 % 84 % 1017,3 hPa 0,0 mm 0,0 km/h (0 Bft) S-SO 213 0 min 0,000 mm 0,0 UV-I 0 W/m 4,8 C 7,3 C 0,0 km/h (0 Bft) 94 %
01/03/2017 21:10 23,2 C 7,3 C 46 % 85 % 1017,3 hPa 0,0 mm 0,0 km/h (0 Bft) S-SO 213 0 min 0,000 mm 0,0 UV-I 0 W/m 4,9 C 7,3 C 0,0 km/h (0 Bft) 97 %
01/03/2017 21:15 23,2 C 7,3 C 47 % 85 % 1017,3 hPa 0,0 mm 0,0 km/h (0 Bft) S-SO 213 0 min 0,000 mm 0,0 UV-I 0 W/m 4,9 C 7,3 C 0,0 km/h (0 Bft) 97 %
01/03/2017 21:20 23,2 C 7,4 C 47 % 86 % 1017,4 hPa 0,0 mm 0,0 km/h (0 Bft) S-SO 213 0 min 0,000 mm 0,0 UV-I 0 W/m 5,2 C 7,4 C 0,0 km/h (0 Bft) 97 %
01/03/2017 21:25 23,2 C 7,5 C 46 % 86 % 1017,4 hPa 0,0 mm 0,0 km/h (0 Bft) S-SO 213 0 min 0,000 mm 0,0 UV-I 0 W/m 5,3 C 7,5 C 0,0 km/h (0 Bft) 97 %
01/03/2017 21:30 23,2 C 7,6 C 46 % 86 % 1017,4 hPa 0,0 mm 0,0 km/h (0 Bft) S-SO 213 0 min 0,000 mm 0,0 UV-I 0 W/m 5,4 C 7,6 C 0,0 km/h (0 Bft) 97 %
01/03/2017 21:35 23,2 C 7,6 C 46 % 86 % 1017,5 hPa 0,0 mm 0,0 km/h (0 Bft) S-SO 213 0 min 0,000 mm 0,0 UV-I 0 W/m 5,4 C 7,6 C 0,0 km/h (0 Bft) 97 %
01/03/2017 21:40 23,2 C 7,7 C 46 % 86 % 1017,5 hPa 0,0 mm 0,0 km/h (0 Bft) S-SO 213 0 min 0,000 mm 0,0 UV-I 0 W/m 5,5 C 7,7 C 0,0 km/h (0 Bft) 96 %
01/03/2017 21:45 23,3 C 7,8 C 46 % 86 % 1017,5 hPa 0,0 mm 0,0 km/h (0 Bft) S-SO 213 0 min 0,000 mm 0,0 UV-I 0 W/m 5,6 C 7,8 C 0,0 km/h (0 Bft) 97 %
01/03/2017 21:50 23,3 C 7,8 C 46 % 86 % 1017,5 hPa 0,0 mm 0,0 km/h (0 Bft) S-SO 213 0 min 0,000 mm 0,0 UV-I 0 W/m 5,6 C 7,8 C 0,0 km/h (0 Bft) 96 %
01/03/2017 21:55 23,3 C 7,8 C 46 % 86 % 1017,6 hPa 0,0 mm 0,0 km/h (0 Bft) S-SO 213 0 min 0,000 mm 0,0 UV-I 0 W/m 5,6 C 7,8 C 0,0 km/h (0 Bft) 93 %
01/03/2017 22:00 23,3 C 7,8 C 46 % 86 % 1017,6 hPa 0,0 mm 0,0 km/h (0 Bft) S-SO 213 0 min 0,000 mm 0,0 UV-I 0 W/m 5,6 C 7,8 C 0,0 km/h (0 Bft) 98 %
01/03/2017 22:05 23,3 C 7,8 C 46 % 86 % 1017,7 hPa 0,0 mm 0,0 km/h (0 Bft) S-SO 213 0 min 0,000 mm 0,0 UV-I 0 W/m 5,6 C 7,8 C 0,0 km/h (0 Bft) 97 %
01/03/2017 22:10 23,3 C 7,9 C 46 % 86 % 1017,7 hPa 0,0 mm 0,0 km/h (0 Bft) S-SO 213 0 min 0,000 mm 0,0 UV-I 0 W/m 5,7 C 7,9 C 0,0 km/h (0 Bft) 98 %
01/03/2017 22:15 23,3 C 7,9 C 46 % 86 % 1017,8 hPa 0,0 mm 0,0 km/h (0 Bft) S-SO 213 0 min 0,000 mm 0,0 UV-I 0 W/m 5,7 C 7,9 C 0,0 km/h (0 Bft) 97 %
01/03/2017 22:20 23,4 C 7,9 C 46 % 86 % 1017,8 hPa 0,0 mm 0,0 km/h (0 Bft) S-SO 213 0 min 0,000 mm 0,0 UV-I 0 W/m 5,7 C 7,9 C 0,0 km/h (0 Bft) 97 %
01/03/2017 22:25 23,4 C 7,9 C 45 % 86 % 1017,7 hPa 0,0 mm 0,0 km/h (0 Bft) S-SO 213 0 min 0,000 mm 0,0 UV-I 0 W/m 5,7 C 7,9 C 0,0 km/h (0 Bft) 97 %
01/03/2017 22:30 23,4 C 7,9 C 45 % 86 % 1017,7 hPa 0,0 mm 0,0 km/h (0 Bft) S-SO 213 0 min 0,000 mm 0,0 UV-I 0 W/m 5,7 C 7,9 C 0,0 km/h (0 Bft) 96 %
01/03/2017 22:35 23,4 C 7,9 C 46 % 85 % 1017,6 hPa 0,0 mm 0,0 km/h (0 Bft) S-SO 213 0 min 0,000 mm 0,0 UV-I 0 W/m 5,5 C 7,9 C 0,0 km/h (0 Bft) 97 %
01/03/2017 22:40 23,4 C 7,9 C 46 % 85 % 1017,6 hPa 0,0 mm 0,0 km/h (0 Bft) S-SO 213 0 min 0,000 mm 0,0 UV-I 0 W/m 5,5 C 7,9 C 0,0 km/h (0 Bft) 97 %
01/03/2017 22:45 23,4 C 7,8 C 46 % 85 % 1017,6 hPa 0,0 mm 0,9 km/h (0 Bft) S-SO 211 0 min 0,000 mm 0,0 UV-I 0 W/m 5,4 C 7,8 C 4,8 km/h (1 Bft) 95 %
01/03/2017 22:50 23,4 C 7,7 C 46 % 85 % 1017,5 hPa 0,0 mm 0,0 km/h (0 Bft) S-SO 211 0 min 0,000 mm 0,0 UV-I 0 W/m 5,3 C 7,7 C 0,0 km/h (0 Bft) 99 %
01/03/2017 22:55 23,4 C 7,6 C 46 % 85 % 1017,4 hPa 0,0 mm 0,0 km/h (0 Bft) S-SO 211 0 min 0,000 mm 0,0 UV-I 0 W/m 5,2 C 7,6 C 0,0 km/h (0 Bft) 97 %
01/03/2017 23:00 23,4 C 7,5 C 46 % 85 % 1017,5 hPa 0,0 mm 0,0 km/h (0 Bft) S-SO 211 0 min 0,000 mm 0,0 UV-I 0 W/m 5,1 C 7,5 C 0,0 km/h (0 Bft) 96 %
01/03/2017 23:05 23,4 C 7,3 C 46 % 84 % 1017,5 hPa 0,0 mm 0,0 km/h (0 Bft) S-SO 211 0 min 0,000 mm 0,0 UV-I 0 W/m 4,8 C 7,3 C 0,0 km/h (0 Bft) 100 %
01/03/2017 23:10 23,5 C 7,1 C 46 % 85 % 1017,6 hPa 0,0 mm 0,0 km/h (0 Bft) S-SO 211 0 min 0,000 mm 0,0 UV-I 0 W/m 4,8 C 7,1 C 0,0 km/h (0 Bft) 98 %
01/03/2017 23:15 23,5 C 6,9 C 46 % 85 % 1017,5 hPa 0,0 mm 0,0 km/h (0 Bft) S-SO 211 0 min 0,000 mm 0,0 UV-I 0 W/m 4,6 C 6,9 C 0,0 km/h (0 Bft) 100 %
01/03/2017 23:20 23,5 C 6,7 C 46 % 85 % 1017,4 hPa 0,0 mm 0,0 km/h (0 Bft) S-SO 211 0 min 0,000 mm 0,0 UV-I 0 W/m 4,4 C 6,7 C 0,0 km/h (0 Bft) 98 %
01/03/2017 23:25 23,5 C 6,4 C 46 % 85 % 1017,4 hPa 0,0 mm 0,0 km/h (0 Bft) S-SO 211 0 min 0,000 mm 0,0 UV-I 0 W/m 4,1 C 6,4 C 0,0 km/h (0 Bft) 98 %
01/03/2017 23:30 23,6 C 6,3 C 46 % 85 % 1017,4 hPa 0,0 mm 0,0 km/h (0 Bft) S-SO 211 0 min 0,000 mm 0,0 UV-I 0 W/m 4,0 C 6,3 C 0,0 km/h (0 Bft) 97 %
01/03/2017 23:35 23,6 C 6,1 C 45 % 86 % 1017,2 hPa 0,0 mm 0,0 km/h (0 Bft) S-SO 211 0 min 0,000 mm 0,0 UV-I 0 W/m 3,9 C 6,1 C 0,0 km/h (0 Bft) 97 %
01/03/2017 23:40 23,6 C 6,1 C 45 % 86 % 1017,3 hPa 0,0 mm 0,0 km/h (0 Bft) S-SO 211 0 min 0,000 mm 0,0 UV-I 0 W/m 3,9 C 6,1 C 0,0 km/h (0 Bft) 99 %
01/03/2017 23:45 23,6 C 5,9 C 45 % 86 % 1017,2 hPa 0,0 mm 0,0 km/h (0 Bft) S-SO 211 0 min 0,000 mm 0,0 UV-I 0 W/m 3,7 C 5,9 C 0,0 km/h (0 Bft) 98 %
01/03/2017 23:50 23,6 C 5,8 C 45 % 87 % 1017,3 hPa 0,0 mm 0,0 km/h (0 Bft) S-SO 211 0 min 0,000 mm 0,0 UV-I 0 W/m 3,8 C 5,8 C 0,0 km/h (0 Bft) 100 %
01/03/2017 23:55 23,6 C 5,6 C 45 % 87 % 1017,4 hPa 0,0 mm 0,0 km/h (0 Bft) S-SO 211 0 min 0,000 mm 0,0 UV-I 0 W/m 3,6 C 5,6 C 0,0 km/h (0 Bft) 97 %
_ Min-Heure 06:10 07:45 07:15 13:10 16:00 - 01:25 - - - - - - 07:25 07:45 01:25 19:40
Minimum _ 19,6 C -0,6 C 43 % 37 % 1015,0 hPa - 0,0 km/h (0 Bft) - - - - - - -2,3 C -0,6 C 0,0 km/h (0 Bft) 93 %
_ Max-Heure 23:30 15:20 20:20 08:20 11:15 00:00 00:40 - - 08:20 14:00 13:25 13:10 18:50 15:15 00:20 02:20
Maximum _ 23,6 C 15,9 C 47 % 91 % 1018,1 hPa 0,0 mm 8,6 km/h
O-NO (2 Bft)
- - 5 min 0,381 mm 3,1 UV-I 702 W/m 6,1 C 15,8 C 19,3 km/h
NO (3 Bft)
100 %
Moyenne _ 21,6 C 8,0 C 45 % 69 % 1016,3 hPa #0,0 mm 1,7 km/h (1 Bft) O-NO - #9:05 h #2,235 mm 2,0 UV-I 338 W/m 2,0 C 7,9 C 4,0 km/h (1 Bft) 98 %